Wind_Speed
51 51 51 51 51 51 51 52 52 52 53 53 53 52 52 52 51 51 50 50 49 48 47 46 45 44 44 43 43 43 42 42 41 41 40 40 39 38 37 35 35 34 34 35 35 35 35 35 36 36 36 36 36 35 35 35 34 34 32 31 29 28 27 26 26 27 29 30 30 30 30 31 31 32 32 31 30 29 29 29 29 29 30 29 27 25
52 52 51 51 51 51 51 51 51 51 51 51 51 50 50 49 49 48 48 47 47 46 46 45 44 44 44 43 43 43 42 42 41 41 40 40 40 39 38 37 36 35 35 36 36 36 36 36 37 37 38 38 38 37 37 37 36 34 33 31 30 29 28 27 27 27 28 30 31 31 31 31 32 32 32 31 30 29 28 29 29 29 29 29 27 25
52 52 52 51 51 50 50 50 49 49 49 49 48 48 47 47 46 46 45 45 45 45 45 44 44 44 44 44 43 43 42 42 42 41 41 41 41 40 40 39 38 38 38 38 38 38 37 37 38 38 39 39 39 39 39 38 37 35 34 32 31 30 29 28 28 28 29 30 32 32 33 33 33 33 32 31 30 29 29 28 29 29 29 28 27 25
54 53 52 51 50 49 49 48 48 47 47 46 46 45 45 44 44 44 44 44 44 44 44 44 44 44 44 44 43 43 43 42 42 43 43 43 43 42 42 42 42 41 41 41 40 40 39 39 39 39 40 40 41 41 41 40 39 37 35 34 32 31 30 29 29 29 30 32 33 33 34 35 35 34 33 31 30 29 29 28 28 28 28 27 26 24
55 53 52 50 49 48 48 47 46 46 45 44 44 43 43 42 43 43 43 43 44 44 44 44 44 44 44 44 43 43 43 44 44 44 44 45 45 45 45 45 45 44 44 43 43 42 41 40 40 40 41 41 42 42 42 42 40 39 37 35 34 33 31 30 30 31 32 33 33 34 35 36 36 36 34 32 31 29 29 28 28 28 27 27 26 24
54 53 51 49 48 47 47 46 45 44 43 43 42 42 42 42 42 42 43 43 43 44 44 44 44 44 44 44 44 44 45 45 46 46 47 47 47 47 47 47 47 46 46 46 45 44 43 42 42 42 42 42 43 43 43 43 42 40 39 37 36 34 33 32 32 33 33 33 33 33 35 36 37 37 36 33 31 30 29 28 28 27 27 26 25 24
53 52 51 50 49 48 47 46 45 44 43 43 42 42 42 42 43 43 43 43 44 44 44 44 44 45 45 45 46 46 47 48 48 48 49 49 49 49 49 48 48 48 47 47 47 46 45 44 44 44 44 44 44 44 44 43 42 41 40 39 37 36 35 34 34 35 35 34 32 32 33 35 37 37 36 34 32 30 29 28 27 27 26 26 25 24
51 51 51 51 50 50 48 47 46 45 44 44 43 43 43 43 44 44 44 44 44 45 45 45 46 46 47 47 48 49 49 50 50 50 50 50 50 49 49 49 48 48 47 47 47 47 46 46 46 45 45 45 45 45 45 44 43 42 41 40 39 38 37 37 37 37 36 34 31 30 31 34 36 37 37 35 33 31 29 28 27 27 26 26 25 24
51 51 52 52 51 51 50 49 48 47 46 46 45 45 45 45 45 45 45 45 46 46 46 47 47 48 49 49 50 50 51 51 51 51 50 50 50 50 49 49 48 48 47 47 47 47 47 47 47 47 47 47 46 46 45 45 44 43 42 41 40 39 39 38 38 38 36 33 30 29 29 32 34 36 36 36 34 31 30 28 27 27 26 26 26 25
51 51 52 52 52 52 51 50 49 48 47 47 47 46 46 46 46 46 46 47 47 47 48 48 49 49 50 51 51 51 51 51 51 51 50 50 50 50 49 49 48 47 47 47 47 47 47 47 47 47 48 48 47 47 46 45 44 43 43 42 41 41 40 40 39 38 36 33 30 28 28 30 33 35 36 36 34 32 31 29 28 27 27 27 26 25
51 51 52 52 52 51 51 51 50 49 48 48 48 47 47 47 47 47 48 48 48 49 49 49 50 50 51 51 51 51 51 51 51 50 50 50 50 50 49 49 48 47 47 46 46 46 47 47 47 48 48 48 48 48 47 46 45 44 43 43 42 42 41 41 40 39 36 33 30 28 28 29 32 34 36 37 35 34 32 30 29 28 28 27 27 26
51 51 52 52 52 51 51 51 50 50 49 49 49 49 48 49 49 49 49 49 50 50 50 50 50 51 51 51 51 51 50 50 50 49 49 49 49 49 49 49 48 47 47 46 46 46 46 47 47 48 48 49 49 48 47 47 46 45 44 44 43 43 42 42 41 39 37 34 31 29 28 29 32 35 37 37 37 35 33 31 30 29 28 28 27 26
52 52 52 52 52 52 52 52 51 51 51 51 50 50 50 51 51 51 51 51 51 51 51 51 50 50 50 50 50 50 49 49 49 48 48 48 48 48 48 48 48 47 47 46 46 46 46 46 47 48 48 48 48 48 47 47 46 45 45 44 44 44 43 43 42 41 39 36 33 31 30 30 33 35 38 38 38 36 34 32 31 29 29 29 28 27
53 53 53 53 53 53 53 53 53 53 53 52 52 53 53 53 53 53 52 52 52 52 51 51 51 50 50 49 49 49 49 48 48 47 47 47 47 47 47 47 46 46 45 45 45 45 45 46 47 47 48 48 48 48 47 47 46 45 45 45 45 45 44 44 43 42 41 39 36 33 32 32 34 37 39 40 39 37 35 33 32 31 30 29 29 27
54 54 54 54 54 54 54 54 54 54 54 55 55 55 55 55 55 54 54 54 53 53 52 52 51 51 50 49 49 49 49 48 47 47 46 46 46 46 46 45 45 45 44 44 44 44 44 45 46 46 47 47 47 47 47 46 46 45 46 46 46 46 45 44 44 44 44 42 39 37 35 35 36 39 41 41 40 38 36 34 33 32 31 30 29 28
54 55 55 55 55 55 55 55 56 56 56 57 57 57 57 57 56 56 55 55 55 54 54 53 52 51 50 50 49 49 49 48 47 47 46 46 46 45 44 44 44 44 43 43 43 43 43 44 45 45 46 46 46 47 46 46 46 46 46 46 46 46 46 45 46 46 46 46 44 41 39 39 40 42 44 43 42 39 37 35 34 33 32 31 30 29
55 55 56 56 56 56 56 56 57 57 58 58 58 58 58 58 58 57 57 57 56 56 55 54 53 51 51 50 50 49 49 48 48 47 46 45 45 45 44 43 43 43 42 42 42 42 42 43 43 44 44 45 45 46 46 46 46 46 46 46 46 46 46 46 47 48 50 50 49 47 46 45 45 46 46 45 43 41 38 36 35 34 33 32 31 30
56 56 56 56 57 57 57 58 58 59 59 60 60 60 59 59 59 58 58 58 57 57 56 55 53 52 51 50 50 50 49 48 48 47 46 45 45 44 43 43 42 42 42 42 42 42 41 41 42 42 43 43 44 45 45 46 46 46 46 47 46 46 46 47 48 50 51 52 51 50 50 49 49 49 48 47 45 42 39 37 36 35 34 33 32 30
59 58 58 58 59 59 59 60 60 60 61 61 61 61 61 60 60 59 59 58 58 57 56 54 53 52 51 50 50 50 49 48 48 47 46 45 44 44 43 42 42 41 41 41 41 41 41 40 41 41 41 42 43 43 44 45 45 46 46 46 46 46 46 47 48 49 49 49 48 48 49 49 49 49 49 48 46 43 40 38 37 36 35 34 32 30
61 61 61 61 61 62 62 62 62 62 62 62 62 62 62 61 60 60 59 58 57 56 55 53 52 51 51 50 50 50 49 48 47 46 45 44 44 43 43 42 41 41 40 40 41 40 40 40 39 39 40 40 41 42 42 43 44 45 45 45 46 46 46 46 47 47 46 44 43 43 44 45 46 47 47 47 46 43 41 39 38 37 36 34 32 29
64 64 63 63 63 64 64 64 64 64 63 63 63 63 62 62 61 60 59 57 56 55 54 52 51 51 50 49 49 49 48 47 46 45 45 44 44 43 42 41 41 40 40 40 40 40 39 39 38 38 38 39 39 39 40 41 42 43 43 44 44 45 45 46 46 45 42 40 38 39 40 41 43 44 45 45 44 42 41 39 38 37 35 33 31 29
67 66 66 65 65 66 66 66 66 65 65 65 64 63 63 62 60 59 58 57 55 54 53 52 51 50 50 49 48 48 47 46 45 45 45 44 44 43 42 41 41 40 39 39 39 39 38 38 37 37 37 37 37 37 37 38 39 40 41 42 43 44 45 45 45 43 40 37 35 35 36 38 40 41 42 42 42 41 40 39 38 36 34 32 30 28
69 69 68 67 67 68 68 68 68 68 67 66 65 64 63 62 60 59 58 57 56 54 53 52 51 50 49 48 47 47 46 45 45 45 45 44 44 44 43 42 41 40 40 39 39 38 38 37 37 36 36 35 35 35 36 36 37 38 39 40 41 42 44 44 44 43 39 36 33 33 34 35 37 38 39 39 39 39 38 38 37 35 33 31 28 27
71 71 70 70 69 69 70 70 69 69 68 67 66 65 64 62 61 60 59 58 57 55 54 53 51 50 48 47 47 46 46 45 45 45 45 46 45 45 44 43 42 41 40 40 39 38 38 37 36 35 35 35 34 34 35 35 36 37 38 39 40 41 43 44 44 42 39 35 32 31 31 32 34 35 35 36 36 37 37 36 35 33 31 29 27 26
73 73 72 72 72 71 71 71 71 70 69 68 66 65 64 63 62 61 61 59 58 56 54 52 50 49 48 48 47 47 47 46 46 47 47 47 47 47 46 44 43 42 42 41 40 40 39 38 37 36 35 35 34 34 35 35 36 37 38 39 40 41 42 43 43 42 40 36 33 31 30 31 31 32 33 33 34 35 36 35 34 31 29 27 26 25
75 75 74 74 73 73 73 72 72 71 69 68 66 65 63 63 62 61 60 59 58 56 54 53 51 50 50 49 50 50 50 50 49 50 50 50 50 50 49 47 46 45 45 44 43 42 42 41 40 39 37 36 36 36 36 36 37 37 38 39 39 40 41 41 42 41 39 37 34 32 31 30 30 30 31 32 33 34 34 33 32 30 28 26 25 25
77 76 75 75 74 74 73 73 72 71 70 68 66 65 64 63 62 61 60 60 59 57 55 55 54 54 53 53 53 53 53 53 53 53 52 53 53 53 52 51 50 49 48 47 46 45 44 44 42 41 40 39 38 38 38 38 39 39 39 39 39 40 40 40 40 40 39 37 35 33 32 31 30 30 31 32 33 33 33 33 31 29 27 26 25 24
77 77 76 75 75 74 74 73 73 72 70 69 67 66 66 65 64 63 62 62 61 59 58 58 57 57 56 56 57 57 57 56 56 55 55 55 55 55 54 53 52 51 50 49 48 47 45 44 43 42 41 40 40 40 41 41 41 41 40 40 39 39 39 39 39 38 38 37 35 34 32 31 30 30 31 31 32 33 33 32 31 29 27 26 25 25
78 77 76 76 75 75 75 74 73 73 72 70 69 68 67 67 65 65 65 64 63 62 62 61 60 60 60 60 60 60 60 59 58 58 57 57 57 57 56 54 53 52 50 48 47 46 45 44 42 41 40 40 40 41 42 43 43 42 42 41 40 39 39 38 38 37 37 36 35 34 32 31 30 30 31 31 32 33 32 32 31 29 28 27 26 26
79 78 77 76 76 76 75 75 74 74 73 72 71 70 69 68 67 67 67 66 65 65 65 64 63 63 62 63 63 62 62 61 60 60 59 58 58 58 57 55 54 52 50 48 46 45 45 44 43 41 40 39 40 41 43 44 44 44 43 41 40 39 38 38 37 37 36 36 34 33 31 30 29 30 30 31 32 32 32 32 31 31 30 29 28 28
79 79 78 77 77 76 76 75 75 74 74 73 72 72 71 70 69 68 68 68 67 67 67 66 66 65 65 65 65 64 64 63 62 61 61 60 60 59 58 56 55 54 52 50 48 46 46 45 44 43 42 41 41 42 44 45 45 45 44 42 41 40 38 38 37 37 36 35 33 31 30 29 28 29 29 30 31 31 31 32 32 32 32 32 31 31
80 79 79 78 77 77 76 76 75 75 75 74 74 73 72 71 70 70 70 69 69 68 68 68 68 67 67 67 66 66 66 65 64 63 62 61 61 60 59 57 56 55 54 52 50 49 47 46 46 45 44 43 43 43 44 45 46 45 44 43 42 40 39 38 38 37 36 34 32 30 28 28 28 28 28 29 29 30 30 31 32 32 33 33 33 33
81 80 79 79 78 77 77 76 76 75 75 75 74 74 73 72 72 71 71 70 70 69 69 69 69 69 68 68 68 68 67 66 65 64 63 62 62 61 60 59 57 56 55 54 53 51 50 48 47 46 46 45 44 44 45 45 46 46 45 44 42 41 40 39 39 38 36 33 31 29 28 28 28 28 28 28 28 29 29 30 31 32 32 33 34 34
82 81 81 80 79 78 78 77 77 76 75 75 74 74 73 73 72 72 71 71 71 70 70 69 69 69 69 69 69 69 69 68 66 65 64 63 62 62 61 60 59 57 56 55 54 53 51 50 48 47 47 46 45 45 45 46 46 46 45 44 43 42 41 40 39 38 35 33 31 29 29 29 28 28 28 27 28 28 29 29 30 30 30 31 32 34
84 83 82 82 81 80 79 79 78 77 76 76 75 74 74 73 73 72 72 72 71 71 70 70 69 69 69 69 69 69 69 68 67 66 64 63 62 62 61 60 59 58 56 55 54 53 52 50 49 48 48 47 47 46 46 46 46 46 45 44 43 42 42 41 39 37 35 32 31 30 30 30 29 29 28 28 28 28 28 28 28 28 29 29 30 32
85 85 84 83 82 82 81 80 79 78 77 77 76 75 74 74 73 73 72 72 71 71 70 70 69 69 68 68 68 68 69 68 67 66 64 63 63 62 61 60 59 58 56 55 54 53 51 50 49 49 48 48 48 47 47 47 46 46 45 44 43 43 42 41 39 37 35 33 32 31 31 30 30 29 29 29 28 28 28 28 28 27 27 28 29 30
87 86 86 85 84 83 83 82 81 80 79 78 77 76 75 74 74 73 73 72 72 71 71 70 69 69 69 68 68 68 68 68 66 65 64 63 62 61 60 59 58 57 55 54 53 52 51 50 49 49 49 49 49 48 47 47 46 46 45 44 43 43 42 41 39 37 35 34 33 32 32 31 31 30 30 30 29 29 28 28 28 27 27 28 28 29
89 88 87 86 86 85 84 83 83 82 81 80 79 78 77 76 75 74 73 73 72 71 71 70 69 69 69 67 67 66 66 66 65 64 63 63 62 61 59 58 57 56 55 54 53 51 50 49 49 49 49 48 48 47 47 47 46 46 45 44 43 42 42 41 39 38 37 36 35 34 33 33 32 32 31 31 30 30 29 29 28 28 28 27 28 28
90 89 88 88 87 86 86 85 84 83 82 81 80 79 78 77 76 76 75 74 73 72 71 70 69 67 64 62 63 64 64 64 63 63 62 62 61 60 58 57 55 54 54 53 52 51 49 49 48 48 48 47 47 47 46 46 46 45 45 44 43 43 42 41 40 39 38 37 37 36 35 34 33 33 32 32 31 31 30 30 29 29 28 27 27 27
91 90 90 89 88 88 87 86 86 85 84 83 82 81 80 79 78 77 76 75 74 73 72 71 70 68 64 62 62 62 62 62 62 61 61 60 59 58 57 56 54 54 53 52 51 50 48 47 47 46 46 46 46 46 46 46 46 45 45 44 44 43 42 42 41 40 40 39 38 38 37 36 35 34 34 33 33 32 32 31 30 29 28 27 27 26
92 91 90 90 89 89 88 88 87 86 86 85 84 83 82 81 80 79 78 77 75 74 73 72 70 69 67 64 61 61 62 62 60 59 61 59 58 57 56 55 54 53 52 51 50 48 47 47 46 45 45 45 45 45 45 45 46 46 46 45 45 44 44 43 43 42 41 41 40 39 39 38 37 36 35 35 34 34 33 32 31 30 28 27 26 25
92 92 91 91 90 89 89 89 88 88 87 86 85 84 83 82 81 80 79 78 77 75 74 73 71 69 68 66 64 62 62 62 63 63 60 58 56 55 54 54 53 52 51 50 49 48 47 46 46 45 46 46 46 46 46 46 47 47 47 47 47 46 46 46 45 44 43 43 42 42 41 40 39 38 37 36 36 35 34 33 31 30 28 27 25 25
92 92 91 91 90 90 89 89 89 88 88 87 87 86 85 84 83 81 80 79 78 77 76 74 72 70 67 65 63 62 61 61 61 61 60 58 56 55 54 53 52 52 50 49 48 47 47 46 45 46 46 47 47 48 47 47 48 48 48 48 48 48 48 47 47 46 45 45 44 44 43 43 42 40 39 37 36 35 34 33 31 29 28 26 25 24
92 91 91 91 90 90 89 89 89 89 89 88 88 87 86 85 84 83 82 81 80 78 77 75 74 72 69 66 63 61 60 60 60 60 60 59 58 56 54 53 52 51 50 49 48 48 47 46 45 45 46 47 48 48 48 48 48 48 49 49 50 49 49 49 48 48 47 46 46 45 45 44 43 41 39 38 36 35 34 32 31 29 28 27 26 25
90 91 90 90 90 89 89 89 89 89 89 89 88 88 87 86 85 84 83 82 81 80 78 77 76 74 72 70 66 63 61 61 61 61 61 61 60 58 56 54 53 52 51 50 49 49 48 46 45 45 46 47 48 48 48 47 47 48 48 49 49 49 50 49 49 48 47 46 46 45 44 43 41 39 38 37 35 34 33 32 30 29 29 28 28 27
89 89 89 90 89 89 89 89 89 89 89 89 88 88 87 87 86 85 84 83 82 81 80 78 77 75 74 72 70 67 64 63 62 62 62 62 61 59 57 55 53 52 52 51 51 50 50 48 47 46 46 47 47 47 47 46 46 46 47 47 48 48 48 48 47 46 45 44 43 42 41 40 39 37 36 35 34 33 32 31 30 30 30 30 29 28
87 88 89 89 89 89 89 89 89 89 89 89 89 89 88 87 86 86 85 84 83 82 81 80 78 77 75 73 71 69 67 66 64 63 62 62 61 60 58 56 55 54 53 53 53 53 53 51 49 48 47 47 47 46 46 45 44 44 45 45 45 45 45 44 43 42 42 41 40 39 38 37 36 35 34 33 32 31 30 30 30 30 30 30 30 30
85 86 88 88 88 88 89 89 89 90 90 90 89 89 88 88 87 87 86 85 84 83 82 81 80 78 77 74 72 70 68 67 65 64 63 62 62 60 59 57 56 55 55 55 55 56 56 55 53 51 49 48 47 46 45 44 44 43 43 43 43 42 42 41 40 39 39 38 37 36 35 35 34 33 32 32 31 30 30 29 29 29 30 30 30 30
82 85 86 87 88 88 88 89 89 90 90 90 90 90 89 89 88 88 87 86 86 84 83 82 81 80 78 76 73 71 69 68 66 65 63 63 62 61 60 59 58 57 57 57 57 58 59 59 57 55 53 51 49 47 46 45 44 43 43 42 42 41 40 39 39 38 38 37 37 36 35 34 34 33 32 31 31 30 30 30 30 30 29 30 30 30
79 82 84 86 87 87 88 89 89 90 91 91 91 91 90 90 89 89 88 88 87 86 85 84 82 81 79 77 75 73 71 69 67 65 64 64 64 63 62 61 60 59 59 59 59 60 60 61 61 60 58 55 53 50 48 46 45 44 43 43 42 41 40 39 39 38 38 37 37 36 36 35 35 34 33 32 32 31 31 31 31 30 30 30 30 30
75 78 81 84 86 87 88 89 90 90 91 92 92 92 92 91 90 90 89 89 88 87 86 85 83 81 80 78 76 74 72 70 68 66 65 65 65 64 64 63 62 61 60 60 61 61 61 62 63 63 62 60 57 55 52 50 48 47 45 44 43 42 41 40 39 39 38 38 38 37 37 37 36 36 35 34 33 32 32 32 32 31 31 31 30 30
Wind_Direction
256 256 255 255 255 254 254 255 255 256 256 257 257 258 258 259 259 260 261 262 263 264 264 265 265 265 265 265 264 264 265 266 267 268 270 271 271 272 272 272 272 272 271 270 269 268 266 265 264 263 263 263 263 264 265 265 266 268 271 274 276 278 279 281 282 284 285 285 285 284 283 283 283 283 283 284 286 289 292 292 291 288 284 280 278 278
256 256 256 255 255 254 254 254 254 254 255 256 256 257 257 258 258 259 260 261 262 263 264 264 264 264 264 263 263 263 264 265 266 267 268 269 269 270 270 271 271 272 272 271 270 268 267 266 265 264 264 264 264 264 264 264 266 267 270 272 274 275 277 278 278 278 279 281 282 282 283 284 284 284 283 283 285 288 290 291 289 286 282 279 276 276
255 255 256 255 255 254 253 253 253 253 254 255 255 256 256 257 257 258 259 260 261 262 263 263 263 263 262 262 262 262 263 264 265 266 267 267 268 268 269 270 271 272 272 271 271 270 269 268 267 266 265 265 265 264 264 265 266 267 269 270 272 273 274 275 274 273 274 275 277 280 282 284 285 285 284 284 284 286 288 289 288 285 281 277 275 275
255 255 255 255 254 253 252 251 251 251 252 253 253 254 254 255 255 256 257 258 259 259 260 261 261 261 261 261 261 262 263 263 264 265 265 266 267 268 270 271 272 272 272 272 271 271 270 269 268 267 266 266 265 265 265 265 266 268 269 269 270 271 271 271 270 270 270 271 274 277 280 283 285 285 285 284 284 285 287 287 286 283 279 275 273 273
254 254 254 253 252 250 249 249 249 249 250 250 251 251 252 252 253 254 254 255 256 257 258 258 259 259 259 260 260 261 262 263 263 264 265 266 268 269 270 271 272 272 272 272 271 271 270 270 269 268 267 266 266 266 266 267 267 268 269 269 269 269 269 268 267 266 266 268 270 273 277 280 282 284 284 284 283 284 285 286 284 282 277 273 272 272
253 252 252 250 248 247 246 246 246 247 247 248 248 248 249 249 250 251 252 253 254 255 256 256 257 257 258 259 260 261 262 262 263 264 266 267 268 269 270 271 271 271 271 271 271 270 270 270 269 268 268 267 267 267 267 268 268 269 269 269 268 267 266 265 264 263 263 264 266 270 274 277 280 282 282 282 282 282 283 283 282 279 275 271 270 271
250 250 249 247 246 245 244 244 244 245 245 245 246 246 247 248 249 250 251 252 253 253 254 255 256 257 258 259 260 261 262 263 264 265 266 267 268 269 270 270 270 270 270 270 270 269 269 269 268 268 268 267 267 267 268 268 268 269 269 269 268 266 264 262 261 261 260 261 263 267 272 275 278 279 281 281 280 280 281 281 280 277 272 269 268 270
247 247 246 245 244 243 243 243 243 243 244 245 245 246 246 248 249 250 251 252 252 253 254 255 256 258 259 260 261 262 263 264 265 266 267 268 268 269 269 269 270 269 269 269 269 268 268 268 267 267 267 267 267 267 268 268 268 269 269 268 267 266 263 261 260 259 259 259 261 265 270 273 276 278 279 279 279 278 278 279 277 274 270 267 266 268
246 245 245 244 244 243 243 243 243 243 244 245 245 246 247 248 250 251 252 253 254 255 256 257 258 259 260 261 262 263 264 265 266 266 267 268 268 268 269 269 269 269 269 268 268 267 267 266 266 266 266 266 266 267 267 267 267 268 268 268 267 265 263 261 260 259 258 258 259 263 268 272 275 277 278 278 277 277 276 276 274 271 267 264 264 266
246 246 245 245 245 245 244 244 244 245 245 246 247 248 249 250 251 252 254 255 256 257 258 258 259 260 261 261 262 263 264 265 265 266 267 267 268 268 268 268 268 268 268 268 267 267 266 266 265 265 265 265 265 266 266 266 266 266 267 266 266 264 262 260 259 259 258 257 258 261 266 270 274 276 277 277 276 275 274 274 271 268 264 262 263 265
246 246 247 247 247 247 247 247 247 247 248 249 249 250 251 252 253 254 255 256 257 258 259 259 260 260 261 261 262 263 263 264 265 266 266 267 267 267 268 268 268 268 268 267 267 266 266 265 265 265 264 264 264 265 265 265 265 265 265 265 264 263 261 259 258 258 257 256 257 260 265 269 272 274 275 276 275 274 273 271 269 265 262 260 261 263
246 247 248 248 249 249 249 250 250 251 251 252 253 254 255 255 256 256 257 257 258 258 259 259 260 260 261 261 262 263 263 264 265 265 266 266 267 267 267 267 267 267 267 267 267 266 266 265 265 264 264 264 264 264 264 264 264 264 264 264 263 262 260 259 257 257 256 256 257 259 263 267 270 272 274 274 274 272 271 269 266 263 260 258 259 262
247 247 248 249 250 250 251 252 253 254 255 256 257 257 257 257 257 257 258 258 258 258 259 259 260 260 261 261 262 263 263 264 264 265 265 266 266 266 266 267 267 267 266 266 266 266 266 265 265 264 264 264 264 264 264 264 263 263 263 263 262 261 260 258 257 256 256 256 257 259 262 265 268 270 272 273 272 271 269 267 264 261 258 257 257 260
248 249 249 250 251 252 253 254 255 256 257 258 258 259 259 259 258 258 258 258 258 258 259 259 260 261 261 262 262 263 264 264 264 264 264 265 265 265 265 266 266 266 266 266 266 266 266 265 265 265 264 264 264 264 263 263 263 262 262 262 261 261 260 258 257 256 255 256 256 258 260 263 266 268 270 271 271 270 268 266 263 260 257 255 256 258
251 251 252 252 253 254 255 256 257 258 258 259 259 259 259 259 259 259 259 259 258 258 259 259 260 261 262 263 263 264 264 264 264 264 264 264 264 265 265 265 265 266 266 266 266 266 266 265 265 265 265 265 264 264 263 262 261 261 261 261 261 261 260 259 257 255 254 254 255 256 257 260 263 265 267 269 270 270 268 265 262 259 256 254 254 256
253 253 254 254 255 256 256 257 258 258 259 259 259 259 259 259 259 259 259 259 259 259 260 260 261 262 263 263 264 264 264 264 264 264 264 264 265 265 265 266 266 266 266 266 266 266 266 266 266 266 266 265 264 264 262 261 260 260 259 259 260 260 260 259 257 255 254 253 253 253 254 256 259 262 265 267 269 269 268 265 262 259 256 253 253 254
253 253 254 254 255 256 256 257 257 258 258 259 259 259 259 260 260 260 260 260 260 261 261 262 263 263 264 264 264 264 265 265 265 265 265 265 265 266 266 267 267 267 267 267 267 267 267 267 267 266 266 265 264 263 262 261 260 259 258 259 259 259 260 259 258 257 256 256 256 255 254 254 256 260 263 266 268 268 268 265 262 259 255 253 252 253
253 253 253 253 254 255 255 256 256 257 257 258 259 259 259 259 259 260 260 260 261 262 262 263 264 264 264 265 265 265 265 265 266 266 266 266 267 267 268 268 268 268 268 268 268 268 268 267 267 266 266 265 264 262 261 260 259 258 258 258 258 259 259 260 260 261 261 261 260 258 257 256 257 259 262 265 267 268 267 265 262 259 256 253 251 252
252 252 252 253 253 254 254 255 255 256 257 257 258 258 259 259 259 259 260 260 261 262 263 263 264 264 264 264 265 265 266 266 266 267 267 267 268 268 269 269 269 269 269 269 269 269 268 268 267 266 265 264 263 262 261 260 259 258 258 258 258 258 259 260 262 265 266 265 263 261 259 258 258 260 262 264 266 267 267 265 262 259 256 253 251 252
252 253 253 253 253 254 254 254 255 255 256 256 257 257 258 258 258 259 259 260 260 261 262 262 263 263 263 264 264 265 266 266 267 267 268 268 268 269 269 269 269 269 268 268 269 268 268 267 266 266 265 264 263 263 262 261 260 259 258 258 257 257 258 260 264 267 268 267 264 261 259 258 259 260 262 264 266 267 267 265 262 259 256 254 252 252
253 253 253 253 254 255 255 255 255 255 256 256 256 257 257 258 258 259 259 259 260 260 261 261 262 262 263 263 264 265 265 266 266 267 267 268 268 268 268 268 268 267 267 267 267 267 267 266 266 265 265 264 263 263 262 261 261 260 259 258 257 257 258 260 264 267 269 267 263 260 258 258 259 261 262 264 266 267 267 265 262 259 256 254 252 253
254 254 254 254 255 255 255 255 255 256 256 256 257 258 258 258 259 259 259 259 260 260 261 261 261 262 262 263 264 264 265 265 265 265 266 267 267 267 267 266 265 265 264 265 265 265 265 265 264 264 264 263 263 263 262 262 261 261 260 259 258 257 258 260 263 266 268 267 263 260 258 259 260 262 263 265 267 267 267 264 262 259 256 253 252 253
255 255 254 255 255 255 256 256 256 256 257 257 258 258 258 259 259 260 260 260 261 261 261 261 261 261 262 262 263 263 264 264 264 264 264 264 264 264 264 263 262 262 262 262 263 263 263 263 263 263 263 263 263 262 262 262 261 261 261 260 259 258 258 259 262 265 266 266 263 260 259 260 261 263 264 266 267 267 265 263 260 257 254 252 252 253
255 255 255 255 256 256 256 257 257 257 257 258 258 259 259 259 259 260 260 261 261 261 261 261 261 261 261 262 262 262 262 262 262 261 260 260 260 260 260 259 259 259 259 260 260 261 261 262 262 262 262 262 262 262 262 261 261 261 261 260 260 259 259 259 261 262 264 264 263 261 261 261 262 264 265 265 266 265 264 261 258 255 252 251 252 253
256 256 256 256 256 256 257 257 257 258 258 258 258 259 259 259 260 260 260 261 261 261 261 261 261 260 260 260 260 259 259 258 257 256 256 256 256 256 256 256 256 257 257 258 259 259 260 261 261 261 262 262 262 262 261 261 261 261 260 260 260 259 259 259 259 260 261 262 262 262 262 262 263 264 264 265 264 264 262 259 256 253 251 251 253 255
257 257 257 256 257 257 257 258 258 258 258 258 258 258 258 259 259 259 260 260 260 260 260 260 259 259 258 258 257 256 256 255 254 254 254 254 255 255 255 255 255 256 258 258 259 260 261 261 261 261 261 262 262 261 261 260 260 260 260 260 259 259 259 259 258 259 259 260 260 261 262 263 264 264 264 263 263 262 260 257 253 251 250 252 255 257
258 258 258 257 257 258 258 258 258 258 258 258 257 257 256 256 257 257 257 258 258 258 258 258 257 257 256 256 255 255 254 254 254 254 255 256 257 258 258 258 258 259 260 261 261 261 262 261 261 261 261 261 261 260 260 259 259 259 259 259 259 259 259 258 258 257 257 257 258 260 261 262 263 263 262 262 261 259 257 254 251 250 251 253 256 257
258 258 258 258 258 258 258 258 258 258 258 258 257 256 256 255 255 255 255 255 256 256 255 255 255 255 255 254 254 254 254 255 255 256 257 258 260 261 262 262 262 263 263 264 264 263 263 262 261 261 261 260 260 259 258 258 257 257 257 257 258 258 258 258 258 257 256 256 256 258 259 260 261 261 260 259 258 257 254 252 250 250 251 254 256 257
258 258 258 258 258 258 258 258 258 258 258 258 257 256 256 255 254 254 254 254 254 254 254 254 254 254 254 254 254 254 255 255 256 257 258 260 262 262 263 264 265 265 266 266 265 264 263 262 261 261 260 259 258 256 256 255 255 255 255 256 256 257 257 257 257 256 255 255 255 256 257 258 258 258 257 256 255 254 253 251 250 250 252 254 256 257
257 257 257 257 257 257 257 257 258 258 258 257 257 257 256 255 254 254 254 254 254 253 253 253 254 254 254 254 254 254 255 256 256 257 258 260 261 262 263 264 265 265 265 265 265 264 263 262 262 261 259 258 256 254 253 253 253 253 253 254 254 255 255 256 256 255 254 253 253 254 254 255 255 255 254 254 254 253 252 252 252 252 252 253 255 256
256 257 257 257 257 257 257 257 257 257 257 257 257 256 256 256 255 254 254 254 254 253 253 254 254 254 254 254 255 255 255 256 256 257 258 259 260 261 262 263 263 264 264 264 263 263 262 262 262 261 260 258 256 253 252 252 252 252 252 252 252 252 253 254 253 253 252 251 251 251 252 252 252 252 252 253 253 254 254 255 255 255 255 255 255 255
255 255 255 255 255 256 256 256 256 256 256 256 256 256 256 255 255 255 254 254 254 254 254 254 254 254 254 254 255 255 255 256 256 257 258 259 259 260 261 261 262 262 262 262 262 262 261 261 261 261 260 258 256 253 251 250 250 250 250 250 250 250 250 251 251 250 249 248 248 248 249 249 249 250 251 252 254 255 257 259 260 260 260 259 259 258
254 254 254 254 254 254 254 254 255 255 255 255 255 255 255 255 255 254 254 254 254 254 254 254 254 254 254 254 255 255 255 256 256 256 257 258 259 259 260 260 261 261 261 261 261 261 261 261 260 260 259 258 255 253 250 249 248 248 248 248 247 248 248 248 248 247 246 245 245 245 246 246 246 247 249 251 254 257 260 262 263 264 265 265 264 263
254 254 254 254 254 254 253 253 253 253 254 254 254 254 254 254 254 254 254 254 254 254 254 254 254 254 254 254 255 255 256 256 256 256 257 257 258 258 259 259 259 260 260 260 260 260 260 259 259 258 257 256 254 251 249 248 247 247 246 246 246 246 246 245 245 244 243 242 242 243 243 243 244 245 247 250 253 257 260 262 263 265 266 266 267 266
254 253 253 253 253 253 253 253 253 253 253 253 253 253 253 253 253 253 253 253 253 253 253 253 253 253 254 254 255 255 256 256 256 256 256 257 257 257 258 258 258 258 258 258 258 258 258 258 257 256 254 253 251 249 247 246 246 245 245 244 244 244 244 243 242 241 241 241 241 241 242 242 242 243 245 248 251 255 258 259 261 262 264 265 266 266
253 253 253 253 253 253 252 252 252 252 252 252 252 252 252 252 252 252 252 252 253 253 253 253 253 253 253 253 254 255 255 255 256 256 256 256 256 257 257 257 257 256 256 256 256 256 256 255 254 253 252 250 249 247 246 245 245 244 244 244 243 243 242 241 241 240 240 240 241 241 241 241 241 242 244 246 249 252 255 257 259 261 262 263 265 265
253 253 252 252 252 252 252 252 252 252 251 251 251 251 251 251 251 251 251 251 251 252 252 252 252 252 252 253 253 253 254 255 255 256 256 256 256 256 256 255 255 255 254 254 254 254 253 253 251 250 249 248 247 246 246 245 244 244 243 243 242 242 241 240 239 239 240 241 241 241 241 241 241 241 243 245 248 250 253 256 258 260 262 263 264 264
253 252 252 252 252 252 251 251 251 251 251 250 250 250 250 250 250 250 250 250 250 250 250 251 251 251 251 251 252 253 253 254 255 255 255 255 255 255 254 254 253 253 252 252 251 251 250 249 249 247 247 246 245 245 244 244 243 242 242 241 241 240 239 239 239 239 240 241 242 242 242 241 241 242 243 245 247 250 253 255 258 260 261 262 263 263
252 252 252 251 251 251 251 251 250 250 250 250 250 249 249 249 248 248 248 249 249 249 249 249 250 250 249 249 250 251 252 253 254 254 254 254 254 254 253 253 252 251 250 250 249 248 248 247 246 245 244 244 244 243 242 241 241 240 239 239 239 238 238 238 238 239 241 242 242 243 243 243 243 243 244 246 248 250 253 255 257 259 260 261 261 261
252 252 251 251 251 250 250 250 250 250 249 249 249 248 248 248 247 247 247 247 248 248 248 248 248 248 248 248 248 248 249 250 251 253 253 253 253 253 252 251 250 249 248 247 247 246 245 244 243 242 242 242 242 241 240 239 238 237 236 236 236 237 237 238 239 240 241 243 243 244 244 244 244 245 246 247 248 250 252 254 255 257 258 258 259 259
252 252 251 251 250 250 249 249 249 248 248 248 248 247 247 247 247 247 246 246 246 247 247 247 247 247 247 247 247 246 247 248 249 250 251 252 251 251 251 250 249 247 246 245 244 242 241 240 240 239 239 239 240 239 238 237 235 234 234 234 235 236 237 238 239 241 242 244 245 245 246 246 246 246 246 247 248 249 250 251 252 253 254 254 255 256
252 251 251 250 249 249 248 248 247 247 247 247 247 246 246 246 246 246 246 246 246 246 246 246 246 246 246 246 246 246 246 246 247 248 249 249 249 249 249 248 247 246 244 242 240 239 237 236 236 236 236 236 236 235 234 234 233 233 233 233 234 235 236 237 239 241 243 244 246 246 247 247 247 247 247 247 248 248 249 249 249 249 250 250 251 252
251 251 250 249 248 248 247 247 246 246 246 245 245 245 245 245 245 245 245 245 245 245 245 245 245 245 244 244 244 244 244 244 244 245 246 246 247 247 247 246 245 244 242 240 237 235 233 232 233 234 234 232 231 229 229 230 231 232 233 234 235 236 237 238 240 241 243 245 246 247 247 247 247 247 246 247 247 247 248 248 248 248 247 247 247 248
250 250 249 248 247 246 246 245 245 244 244 244 244 244 244 244 244 244 244 244 244 244 244 244 244 243 243 242 241 241 240 241 242 243 244 244 245 245 245 244 243 242 239 237 234 232 230 229 230 231 230 228 226 225 225 226 228 230 232 234 236 237 238 239 240 242 243 245 246 247 247 247 246 246 246 246 247 248 248 248 248 248 248 248 247 247
249 248 247 246 245 244 244 243 243 243 243 242 242 243 243 242 242 242 242 242 242 242 242 242 242 242 242 242 241 239 238 239 240 241 242 243 243 243 243 242 241 239 237 234 231 228 227 228 229 229 228 226 225 224 224 225 226 229 231 233 235 236 237 238 239 241 242 243 244 244 244 244 244 244 244 246 247 248 250 250 251 251 250 250 249 248
247 246 245 245 244 243 242 241 241 241 241 241 241 241 241 241 241 241 241 241 241 241 241 241 241 241 241 241 240 239 238 239 239 240 241 241 242 242 241 240 239 237 235 231 228 226 224 225 227 228 228 226 226 225 226 226 227 229 230 232 233 234 235 236 237 238 239 239 240 240 241 241 241 242 244 245 247 249 251 252 253 253 252 252 251 250
245 244 244 243 242 241 240 240 239 239 239 239 239 239 239 239 239 239 239 239 239 239 239 239 239 239 240 240 239 239 238 238 238 238 238 239 240 240 240 239 237 235 233 230 226 224 222 223 224 226 227 227 226 227 227 228 229 230 231 231 232 232 233 233 234 234 235 235 236 237 237 238 240 241 243 245 247 249 251 252 254 254 254 253 252 251
243 243 242 241 240 239 239 238 237 237 236 236 237 237 237 237 237 237 237 237 237 237 237 237 238 238 238 238 238 237 237 236 236 236 236 237 237 238 238 237 236 234 232 229 226 223 221 221 222 224 225 226 226 226 227 227 228 229 230 230 231 231 231 232 232 232 233 233 234 235 236 238 239 241 243 244 246 247 249 251 252 253 254 254 253 251
242 241 240 240 239 238 237 236 235 235 234 234 234 234 235 235 235 235 235 235 235 235 235 235 236 236 236 236 236 235 234 234 234 234 234 235 235 236 236 236 235 233 231 229 226 223 222 221 221 222 224 225 225 225 225 225 226 227 228 228 229 229 230 230 231 232 233 233 234 235 237 238 239 241 242 243 245 246 248 249 251 252 252 253 252 250
241 240 239 238 238 237 236 235 234 233 233 232 232 232 232 232 233 233 233 233 233 233 233 233 234 234 234 234 234 233 232 231 232 232 232 233 234 234 234 234 234 233 231 229 226 225 223 222 222 222 223 224 225 225 225 225 225 225 225 226 227 227 228 230 231 232 233 234 235 237 238 239 240 241 242 243 245 246 248 249 249 250 250 251 250 248
242 240 238 237 237 236 235 234 232 232 231 231 231 230 230 230 231 231 231 231 231 231 231 231 231 232 232 232 232 231 230 229 229 229 229 230 231 232 233 233 233 232 231 229 227 225 224 224 224 224 224 224 224 225 226 226 226 225 226 226 226 227 229 230 232 233 235 236 237 238 239 240 241 242 243 244 245 246 247 248 248 248 248 248 247 245
Height
5693 5693 5694 5694 5694 5694 5693 5694 5694 5694 5694 5695 5695 5695 5695 5696 5696 5696 5697 5698 5698 5699 5700 5700 5701 5701 5702 5703 5704 5704 5705 5705 5706 5706 5707 5707 5708 5708 5708 5709 5709 5710 5710 5710 5711 5711 5712 5713 5713 5712 5713 5713 5713 5714 5715 5715 5715 5714 5713 5713 5713 5713 5713 5714 5715 5715 5715 5714 5714 5714 5713 5713 5713 5712 5712 5712 5711 5711 5710 5710 5710 5709 5709 5709 5708 5708
5688 5689 5689 5690 5690 5690 5689 5690 5690 5690 5690 5690 5691 5691 5691 5692 5692 5693 5694 5694 5695 5695 5696 5696 5697 5698 5699 5699 5700 5701 5701 5702 5702 5703 5703 5704 5704 5704 5705 5705 5705 5706 5706 5707 5707 5708 5709 5710 5710 5710 5710 5710 5710 5710 5711 5713 5712 5711 5710 5710 5710 5710 5711 5711 5712 5713 5712 5712 5712 5712 5711 5710 5710 5710 5710 5709 5709 5709 5708 5708 5708 5707 5707 5707 5706 5706
5684 5684 5685 5685 5685 5686 5685 5686 5686 5686 5686 5686 5687 5687 5688 5688 5689 5689 5690 5691 5691 5692 5692 5693 5694 5695 5695 5696 5697 5697 5698 5698 5699 5699 5700 5700 5700 5700 5700 5701 5702 5702 5703 5704 5704 5705 5706 5707 5707 5707 5707 5707 5707 5708 5709 5710 5709 5708 5708 5708 5708 5708 5708 5709 5710 5710 5710 5710 5710 5709 5709 5708 5708 5708 5707 5707 5707 5706 5706 5706 5705 5705 5705 5705 5705 5705
5680 5680 5680 5681 5681 5682 5682 5682 5682 5682 5682 5682 5683 5683 5684 5684 5685 5686 5687 5687 5688 5689 5689 5690 5690 5691 5692 5693 5694 5694 5695 5695 5695 5695 5696 5696 5696 5696 5697 5697 5698 5699 5700 5700 5701 5702 5703 5703 5704 5704 5704 5704 5704 5705 5706 5706 5706 5705 5705 5705 5705 5705 5705 5706 5707 5707 5707 5707 5707 5706 5706 5706 5705 5705 5705 5705 5704 5704 5704 5704 5703 5703 5703 5703 5703 5703
5675 5676 5676 5677 5677 5677 5678 5678 5678 5678 5678 5679 5679 5680 5680 5681 5682 5683 5683 5684 5685 5685 5686 5687 5687 5688 5689 5689 5690 5690 5691 5691 5691 5692 5692 5692 5692 5693 5693 5694 5695 5695 5696 5697 5697 5698 5699 5700 5700 5701 5701 5701 5701 5702 5703 5703 5703 5703 5703 5703 5702 5702 5703 5704 5704 5704 5704 5704 5704 5704 5703 5703 5703 5703 5702 5702 5702 5701 5701 5701 5701 5700 5700 5701 5701 5701
5671 5672 5672 5673 5673 5674 5674 5674 5674 5674 5675 5675 5675 5676 5677 5678 5678 5679 5680 5681 5681 5682 5683 5683 5684 5685 5685 5686 5686 5687 5687 5687 5687 5688 5688 5689 5689 5689 5690 5690 5691 5692 5692 5693 5694 5695 5696 5696 5697 5697 5698 5698 5699 5699 5700 5699 5699 5700 5700 5700 5700 5700 5700 5701 5701 5701 5700 5700 5700 5700 5700 5700 5700 5700 5700 5699 5699 5699 5699 5699 5699 5698 5698 5699 5699 5699
5667 5667 5668 5669 5669 5670 5670 5670 5670 5671 5671 5672 5672 5673 5674 5674 5675 5676 5676 5677 5678 5679 5679 5680 5680 5681 5681 5682 5682 5682 5683 5683 5683 5684 5684 5685 5685 5685 5686 5687 5687 5688 5689 5690 5690 5691 5692 5693 5693 5694 5694 5695 5695 5695 5696 5695 5696 5696 5697 5697 5697 5697 5697 5698 5698 5698 5698 5697 5697 5697 5697 5697 5697 5697 5697 5697 5696 5696 5696 5696 5696 5696 5696 5696 5697 5697
5662 5663 5664 5664 5665 5665 5666 5666 5667 5667 5668 5668 5669 5670 5670 5671 5672 5672 5673 5674 5675 5675 5676 5676 5677 5677 5678 5678 5678 5679 5679 5679 5680 5680 5680 5681 5681 5681 5682 5683 5683 5684 5685 5686 5687 5687 5688 5689 5689 5690 5690 5690 5691 5692 5692 5692 5692 5693 5693 5693 5694 5694 5695 5695 5695 5695 5695 5694 5694 5694 5694 5694 5694 5694 5694 5694 5694 5694 5694 5694 5694 5694 5694 5694 5695 5695
5657 5658 5659 5660 5661 5661 5662 5663 5663 5664 5664 5665 5665 5666 5667 5668 5668 5669 5670 5670 5671 5672 5672 5673 5673 5674 5674 5674 5675 5675 5675 5675 5676 5676 5677 5677 5678 5678 5678 5679 5679 5680 5681 5682 5683 5683 5684 5685 5685 5685 5686 5686 5687 5688 5688 5688 5688 5689 5690 5690 5690 5691 5691 5692 5691 5691 5691 5691 5690 5690 5690 5690 5690 5691 5691 5691 5691 5691 5691 5691 5691 5691 5692 5692 5692 5693
5653 5654 5655 5656 5657 5658 5658 5659 5659 5660 5660 5660 5661 5662 5663 5664 5665 5665 5666 5667 5668 5668 5669 5669 5670 5670 5670 5671 5671 5671 5671 5672 5672 5673 5673 5673 5674 5674 5674 5675 5675 5676 5677 5678 5678 5679 5680 5680 5681 5681 5682 5683 5683 5684 5684 5684 5685 5685 5686 5686 5687 5687 5688 5688 5688 5688 5688 5688 5688 5687 5687 5687 5688 5688 5688 5688 5688 5689 5689 5689 5689 5689 5689 5690 5690 5690
5650 5650 5651 5652 5653 5654 5655 5655 5655 5656 5657 5657 5658 5659 5660 5661 5661 5662 5663 5663 5664 5665 5665 5666 5666 5667 5667 5667 5667 5668 5668 5668 5669 5669 5670 5670 5670 5670 5670 5670 5671 5672 5673 5673 5674 5675 5675 5676 5677 5677 5678 5679 5679 5680 5680 5680 5681 5682 5682 5683 5683 5684 5684 5685 5685 5685 5684 5685 5685 5685 5685 5685 5685 5685 5685 5685 5685 5686 5686 5686 5686 5686 5686 5687 5687 5688
5645 5646 5647 5648 5649 5650 5651 5651 5652 5653 5654 5654 5655 5655 5656 5657 5658 5659 5659 5660 5660 5661 5662 5662 5663 5663 5664 5664 5664 5664 5664 5665 5665 5666 5666 5666 5666 5666 5666 5667 5667 5668 5669 5669 5670 5670 5671 5672 5672 5673 5674 5675 5675 5675 5676 5677 5677 5678 5679 5679 5679 5680 5680 5681 5681 5681 5681 5681 5681 5682 5682 5682 5682 5682 5682 5683 5683 5683 5683 5683 5683 5683 5684 5684 5685 5685
5641 5642 5643 5643 5644 5645 5646 5647 5648 5649 5649 5650 5650 5651 5652 5653 5654 5655 5655 5656 5657 5658 5658 5659 5659 5660 5660 5660 5660 5660 5660 5661 5661 5662 5662 5662 5663 5663 5663 5663 5664 5664 5665 5665 5666 5666 5667 5668 5668 5669 5670 5670 5671 5671 5672 5673 5674 5674 5675 5675 5675 5676 5677 5677 5678 5679 5678 5678 5678 5679 5679 5679 5680 5680 5680 5680 5680 5680 5680 5680 5680 5680 5681 5681 5682 5682
5636 5637 5638 5639 5640 5641 5642 5643 5643 5644 5644 5645 5646 5647 5648 5649 5650 5650 5651 5652 5653 5654 5655 5655 5655 5656 5656 5656 5656 5657 5657 5657 5658 5659 5659 5659 5659 5659 5660 5660 5660 5660 5661 5661 5662 5662 5663 5664 5665 5665 5666 5666 5667 5667 5668 5669 5670 5670 5671 5671 5672 5672 5673 5674 5675 5675 5675 5675 5675 5675 5676 5676 5676 5676 5677 5677 5677 5677 5677 5677 5677 5678 5678 5678 5679 5680
5632 5633 5634 5635 5635 5636 5637 5638 5639 5639 5640 5641 5642 5642 5643 5644 5645 5646 5647 5648 5649 5650 5650 5651 5651 5652 5652 5653 5653 5653 5653 5653 5654 5655 5655 5655 5655 5655 5656 5656 5656 5657 5657 5658 5658 5658 5659 5660 5660 5661 5662 5662 5663 5663 5664 5665 5666 5667 5667 5668 5668 5669 5670 5670 5671 5671 5672 5672 5672 5672 5672 5673 5673 5674 5674 5674 5674 5675 5675 5675 5675 5675 5675 5675 5676 5677
5627 5628 5629 5630 5631 5632 5633 5634 5634 5635 5635 5636 5637 5637 5638 5639 5640 5641 5642 5643 5644 5645 5646 5646 5647 5648 5648 5649 5649 5649 5649 5649 5650 5651 5652 5652 5652 5652 5653 5652 5652 5653 5654 5654 5655 5655 5655 5656 5657 5657 5658 5658 5659 5660 5660 5661 5662 5663 5664 5664 5665 5665 5666 5667 5667 5668 5668 5668 5669 5669 5669 5670 5670 5670 5671 5671 5671 5672 5672 5672 5672 5672 5672 5673 5674 5675
5623 5624 5624 5625 5626 5627 5628 5629 5630 5630 5630 5631 5631 5632 5633 5634 5635 5636 5638 5639 5640 5640 5641 5642 5643 5644 5644 5645 5645 5645 5645 5645 5646 5646 5648 5648 5648 5649 5649 5649 5649 5649 5650 5651 5651 5651 5652 5653 5653 5654 5654 5655 5655 5656 5656 5657 5658 5659 5660 5660 5661 5662 5662 5663 5663 5664 5664 5665 5665 5665 5665 5666 5666 5667 5667 5668 5668 5669 5669 5669 5670 5670 5670 5670 5671 5672
5618 5619 5620 5620 5621 5622 5623 5624 5624 5625 5625 5626 5626 5627 5629 5630 5630 5632 5633 5634 5635 5636 5637 5638 5639 5640 5640 5640 5640 5641 5641 5642 5642 5642 5643 5644 5645 5645 5645 5645 5645 5645 5646 5647 5648 5648 5649 5649 5650 5650 5650 5651 5651 5652 5653 5653 5654 5655 5656 5656 5657 5658 5659 5660 5660 5660 5660 5660 5660 5660 5661 5662 5663 5664 5664 5665 5665 5665 5666 5666 5667 5667 5667 5667 5668 5669
5612 5614 5615 5615 5616 5617 5618 5619 5619 5620 5620 5621 5621 5622 5624 5625 5626 5627 5628 5630 5630 5631 5632 5633 5634 5635 5636 5636 5636 5637 5637 5638 5638 5638 5639 5640 5641 5642 5642 5642 5642 5642 5643 5643 5644 5645 5645 5645 5646 5646 5647 5647 5648 5648 5649 5650 5650 5651 5652 5653 5654 5654 5655 5656 5656 5656 5656 5655 5655 5656 5657 5658 5659 5660 5661 5661 5662 5662 5663 5663 5664 5664 5664 5665 5665 5666
5607 5608 5610 5610 5611 5612 5612 5613 5614 5615 5615 5615 5616 5617 5619 5620 5621 5623 5624 5625 5626 5627 5628 5629 5630 5630 5631 5632 5633 5633 5633 5634 5634 5635 5635 5636 5637 5638 5639 5639 5639 5639 5640 5640 5640 5641 5641 5642 5643 5643 5644 5644 5644 5645 5645 5646 5647 5648 5648 5649 5650 5651 5651 5652 5652 5652 5651 5651 5651 5652 5653 5654 5655 5656 5657 5658 5659 5659 5660 5660 5660 5661 5661 5662 5663 5663
5602 5603 5604 5605 5606 5607 5607 5608 5609 5610 5610 5610 5611 5612 5614 5615 5616 5618 5619 5620 5621 5622 5623 5625 5625 5626 5627 5629 5629 5629 5629 5630 5631 5631 5631 5633 5633 5634 5635 5636 5636 5636 5636 5636 5637 5638 5638 5639 5639 5640 5640 5641 5641 5642 5642 5643 5643 5644 5645 5645 5646 5647 5648 5648 5649 5649 5648 5648 5648 5648 5649 5650 5651 5653 5654 5655 5655 5656 5657 5657 5658 5658 5658 5659 5660 5661
5596 5597 5599 5600 5601 5602 5602 5603 5604 5605 5605 5606 5606 5608 5609 5610 5611 5613 5614 5615 5616 5617 5619 5620 5621 5622 5623 5625 5625 5625 5625 5626 5627 5628 5628 5629 5629 5630 5632 5632 5633 5633 5633 5633 5634 5634 5635 5635 5636 5637 5637 5638 5638 5639 5639 5640 5640 5640 5641 5642 5643 5643 5644 5645 5645 5645 5645 5645 5645 5645 5646 5647 5648 5650 5650 5651 5652 5653 5654 5654 5655 5655 5656 5656 5657 5658
5591 5592 5594 5595 5596 5597 5597 5598 5599 5599 5600 5601 5602 5603 5604 5605 5606 5607 5609 5610 5611 5613 5614 5615 5617 5618 5619 5620 5620 5621 5622 5622 5623 5624 5625 5625 5625 5626 5628 5629 5629 5629 5630 5630 5630 5631 5631 5632 5633 5634 5635 5635 5635 5636 5636 5636 5637 5637 5638 5638 5639 5640 5640 5641 5642 5642 5642 5642 5642 5642 5643 5644 5645 5646 5647 5648 5649 5650 5651 5651 5652 5652 5653 5654 5655 5655
5585 5587 5588 5590 5590 5591 5592 5593 5594 5595 5595 5596 5597 5598 5599 5600 5601 5602 5604 5605 5607 5608 5609 5611 5612 5613 5614 5616 5617 5617 5617 5619 5620 5620 5621 5621 5622 5623 5624 5625 5626 5626 5626 5627 5627 5628 5628 5629 5630 5631 5632 5632 5633 5633 5633 5633 5634 5634 5635 5635 5635 5636 5637 5638 5639 5639 5639 5639 5639 5640 5640 5641 5642 5643 5644 5645 5646 5647 5648 5649 5649 5650 5650 5651 5652 5653
5579 5580 5582 5583 5585 5585 5586 5587 5588 5589 5590 5591 5592 5593 5594 5595 5596 5597 5599 5600 5602 5603 5605 5606 5607 5608 5610 5611 5613 5613 5613 5615 5616 5617 5617 5617 5618 5619 5620 5621 5622 5622 5623 5623 5624 5625 5625 5626 5627 5628 5629 5629 5630 5630 5630 5630 5630 5631 5631 5632 5632 5633 5634 5634 5635 5636 5636 5636 5636 5637 5637 5638 5639 5640 5641 5642 5643 5644 5645 5646 5647 5647 5648 5649 5650 5650
5572 5574 5575 5577 5578 5579 5580 5581 5582 5583 5585 5586 5587 5588 5589 5590 5591 5593 5594 5595 5597 5599 5600 5601 5602 5603 5605 5607 5608 5608 5609 5610 5612 5613 5613 5614 5614 5615 5616 5618 5619 5619 5619 5620 5621 5621 5622 5623 5624 5625 5625 5626 5627 5627 5627 5627 5628 5628 5628 5629 5629 5630 5630 5631 5631 5632 5633 5633 5634 5634 5635 5635 5636 5637 5638 5639 5640 5641 5642 5643 5644 5645 5646 5646 5647 5647
5566 5567 5569 5570 5572 5573 5574 5575 5576 5577 5578 5580 5581 5582 5583 5585 5586 5587 5589 5590 5592 5594 5595 5596 5597 5599 5600 5602 5603 5603 5605 5606 5607 5608 5609 5610 5610 5610 5611 5613 5615 5615 5615 5616 5617 5618 5619 5619 5620 5621 5622 5623 5624 5624 5625 5625 5625 5625 5625 5626 5626 5626 5627 5627 5628 5629 5629 5630 5631 5631 5632 5633 5633 5634 5635 5636 5637 5638 5640 5640 5641 5642 5643 5644 5644 5645
5560 5561 5563 5564 5565 5567 5568 5569 5570 5571 5572 5574 5575 5576 5577 5579 5580 5582 5583 5585 5587 5589 5590 5591 5592 5594 5595 5596 5597 5598 5600 5601 5602 5603 5605 5606 5605 5605 5606 5609 5610 5610 5611 5611 5612 5613 5615 5615 5616 5618 5619 5620 5620 5621 5621 5621 5622 5622 5622 5623 5623 5624 5624 5625 5625 5625 5626 5627 5628 5628 5629 5630 5630 5631 5632 5633 5635 5635 5637 5638 5639 5640 5640 5641 5642 5642
5553 5555 5556 5557 5559 5560 5561 5562 5564 5565 5566 5567 5569 5570 5571 5573 5575 5576 5578 5580 5582 5584 5584 5585 5587 5589 5590 5591 5592 5593 5595 5596 5597 5599 5600 5601 5600 5600 5602 5604 5605 5605 5606 5607 5607 5608 5610 5611 5612 5614 5615 5616 5617 5617 5618 5618 5618 5619 5619 5620 5620 5621 5621 5621 5622 5623 5623 5624 5625 5625 5626 5627 5628 5629 5630 5630 5632 5633 5634 5635 5636 5637 5638 5638 5639 5640
5546 5548 5549 5550 5552 5553 5555 5556 5557 5558 5560 5561 5562 5564 5565 5567 5569 5571 5572 5574 5576 5577 5578 5579 5581 5583 5584 5585 5586 5588 5589 5591 5593 5594 5595 5596 5595 5596 5598 5600 5600 5601 5602 5602 5603 5603 5605 5606 5608 5609 5610 5612 5613 5613 5614 5614 5615 5615 5616 5616 5617 5618 5618 5619 5619 5620 5620 5621 5622 5623 5623 5624 5625 5626 5627 5628 5629 5630 5631 5632 5633 5634 5635 5635 5636 5637
5539 5540 5542 5543 5545 5546 5547 5549 5550 5552 5553 5555 5556 5557 5559 5561 5563 5565 5566 5568 5570 5571 5572 5574 5575 5577 5578 5580 5581 5582 5584 5586 5588 5589 5590 5590 5590 5591 5594 5595 5595 5596 5597 5598 5598 5599 5600 5602 5604 5605 5606 5607 5609 5610 5610 5610 5611 5611 5612 5613 5614 5615 5615 5616 5616 5617 5617 5618 5619 5620 5620 5621 5622 5623 5624 5625 5626 5627 5628 5629 5630 5631 5632 5632 5633 5634
5531 5533 5535 5536 5537 5539 5540 5542 5543 5545 5546 5548 5550 5551 5553 5555 5557 5558 5560 5562 5564 5565 5567 5568 5569 5571 5572 5574 5575 5577 5578 5580 5582 5584 5585 5585 5585 5587 5589 5590 5591 5591 5593 5594 5594 5594 5595 5597 5599 5601 5602 5604 5604 5605 5606 5607 5607 5607 5608 5609 5610 5611 5612 5613 5613 5614 5615 5615 5616 5617 5617 5618 5619 5620 5621 5623 5624 5625 5626 5626 5627 5628 5629 5629 5630 5630
5523 5525 5527 5528 5530 5531 5533 5535 5536 5538 5540 5541 5543 5545 5547 5549 5550 5552 5554 5555 5557 5559 5560 5562 5563 5565 5566 5568 5569 5571 5572 5575 5576 5578 5580 5580 5581 5582 5584 5585 5586 5587 5588 5590 5590 5591 5591 5593 5595 5596 5598 5599 5600 5601 5602 5602 5603 5604 5605 5605 5606 5607 5609 5609 5610 5611 5611 5612 5613 5614 5615 5615 5616 5618 5619 5620 5621 5622 5623 5624 5625 5625 5626 5626 5627 5628
5516 5518 5519 5521 5522 5524 5526 5527 5529 5531 5532 5535 5536 5538 5540 5542 5544 5546 5547 5549 5551 5552 5554 5556 5557 5559 5560 5562 5563 5565 5566 5569 5570 5572 5574 5575 5576 5577 5579 5580 5581 5582 5583 5585 5585 5587 5588 5589 5590 5592 5593 5595 5596 5597 5597 5598 5599 5600 5601 5602 5603 5604 5605 5606 5607 5607 5608 5609 5610 5610 5612 5613 5614 5615 5616 5617 5618 5619 5620 5621 5622 5622 5623 5624 5625 5625
5508 5510 5512 5513 5515 5517 5519 5520 5522 5524 5526 5528 5530 5532 5534 5536 5537 5539 5541 5542 5544 5546 5548 5549 5551 5553 5555 5556 5558 5559 5560 5562 5565 5566 5568 5569 5570 5572 5574 5575 5576 5577 5578 5579 5580 5582 5583 5585 5586 5587 5588 5590 5591 5593 5593 5594 5595 5596 5597 5598 5599 5600 5601 5602 5603 5604 5605 5605 5606 5607 5608 5609 5610 5611 5613 5614 5615 5616 5617 5617 5618 5619 5620 5621 5621 5622
5500 5502 5504 5505 5508 5510 5511 5513 5515 5517 5519 5521 5523 5525 5527 5529 5531 5532 5534 5536 5538 5539 5541 5543 5545 5546 5548 5550 5552 5553 5555 5556 5558 5560 5562 5563 5565 5566 5568 5570 5571 5573 5573 5574 5575 5577 5578 5580 5581 5583 5584 5585 5586 5588 5589 5590 5591 5592 5593 5595 5596 5597 5598 5599 5600 5600 5601 5602 5603 5604 5605 5606 5607 5608 5609 5610 5611 5612 5613 5614 5615 5616 5617 5617 5618 5619
5491 5493 5495 5497 5500 5502 5504 5505 5507 5509 5512 5514 5516 5518 5520 5522 5524 5525 5527 5529 5531 5533 5535 5536 5538 5540 5542 5544 5546 5547 5549 5550 5552 5555 5556 5557 5559 5561 5563 5564 5566 5567 5568 5569 5570 5572 5574 5575 5577 5578 5580 5580 5582 5583 5585 5586 5588 5589 5590 5591 5592 5594 5594 5595 5596 5596 5597 5599 5600 5600 5602 5603 5604 5605 5605 5606 5608 5609 5610 5610 5612 5612 5613 5614 5615 5615
5482 5484 5486 5489 5491 5494 5495 5497 5499 5501 5504 5506 5509 5511 5513 5515 5517 5518 5520 5522 5524 5526 5528 5530 5532 5534 5536 5538 5540 5541 5543 5545 5547 5549 5550 5552 5554 5555 5557 5559 5560 5562 5563 5564 5565 5567 5569 5570 5572 5573 5575 5577 5578 5580 5581 5582 5584 5585 5586 5587 5589 5590 5591 5591 5592 5593 5594 5595 5596 5597 5598 5599 5600 5601 5602 5603 5604 5605 5606 5608 5609 5609 5610 5611 5612 5612
5472 5475 5478 5480 5483 5485 5487 5489 5491 5493 5496 5499 5501 5503 5505 5507 5509 5511 5513 5515 5517 5519 5521 5523 5525 5527 5530 5532 5534 5535 5537 5540 5541 5543 5544 5546 5548 5550 5552 5554 5555 5556 5558 5560 5561 5562 5564 5565 5567 5568 5570 5573 5575 5576 5577 5578 5580 5581 5583 5584 5585 5586 5587 5588 5589 5590 5590 5592 5593 5594 5595 5595 5597 5598 5599 5600 5601 5602 5604 5605 5605 5606 5607 5608 5609 5610
5462 5465 5468 5471 5474 5476 5478 5480 5483 5485 5487 5490 5492 5495 5497 5499 5501 5503 5505 5508 5510 5512 5514 5517 5519 5521 5524 5525 5527 5529 5531 5534 5535 5537 5539 5540 5542 5545 5546 5548 5550 5551 5553 5555 5556 5558 5560 5561 5563 5565 5567 5569 5570 5571 5573 5575 5576 5578 5579 5580 5581 5582 5583 5585 5585 5586 5587 5588 5589 5590 5591 5592 5594 5595 5596 5597 5598 5600 5600 5601 5602 5603 5604 5605 5605 5606
5452 5456 5459 5461 5464 5467 5469 5471 5474 5476 5478 5480 5483 5486 5489 5491 5494 5496 5499 5501 5503 5505 5508 5510 5513 5515 5517 5519 5521 5523 5525 5527 5530 5532 5533 5535 5537 5539 5541 5543 5544 5546 5548 5550 5551 5553 5555 5557 5559 5561 5563 5565 5567 5568 5570 5571 5572 5574 5575 5576 5577 5578 5580 5581 5582 5583 5584 5585 5586 5587 5588 5589 5590 5592 5593 5594 5595 5596 5597 5598 5599 5600 5601 5602 5603 5603
5442 5445 5448 5451 5454 5457 5460 5462 5464 5466 5469 5471 5474 5477 5480 5483 5486 5489 5492 5494 5496 5499 5501 5504 5506 5509 5511 5513 5515 5517 5519 5521 5524 5526 5528 5530 5532 5534 5536 5537 5539 5541 5543 5545 5547 5549 5551 5553 5555 5556 5558 5561 5563 5565 5566 5567 5569 5570 5571 5572 5574 5575 5576 5577 5578 5579 5580 5582 5583 5584 5585 5586 5588 5589 5590 5591 5592 5593 5594 5595 5596 5597 5598 5599 5600 5600
5430 5434 5437 5440 5444 5447 5449 5451 5454 5457 5459 5462 5465 5468 5471 5475 5478 5482 5484 5486 5489 5491 5494 5497 5500 5502 5504 5506 5509 5511 5514 5516 5518 5520 5522 5524 5526 5529 5530 5532 5534 5535 5538 5540 5542 5544 5547 5549 5551 5552 5555 5557 5560 5561 5562 5563 5564 5566 5567 5568 5570 5571 5572 5573 5575 5576 5577 5578 5580 5581 5582 5583 5584 5585 5587 5588 5589 5590 5591 5592 5593 5594 5595 5595 5596 5597
5418 5421 5425 5429 5433 5436 5438 5441 5444 5447 5450 5452 5456 5460 5463 5466 5470 5474 5476 5479 5481 5484 5487 5490 5493 5495 5498 5500 5502 5505 5508 5510 5512 5515 5517 5519 5521 5523 5525 5527 5529 5531 5533 5535 5537 5540 5542 5545 5546 5549 5551 5553 5555 5557 5558 5559 5560 5562 5563 5564 5565 5567 5568 5570 5571 5573 5574 5575 5576 5577 5579 5580 5581 5582 5584 5585 5586 5587 5588 5589 5590 5590 5591 5592 5593 5594
5406 5409 5413 5417 5421 5424 5428 5431 5434 5436 5440 5443 5447 5450 5454 5458 5461 5465 5468 5470 5474 5477 5480 5483 5485 5488 5490 5492 5495 5499 5502 5505 5507 5510 5512 5514 5516 5518 5520 5522 5524 5526 5528 5530 5533 5535 5537 5540 5542 5544 5546 5549 5550 5552 5553 5555 5556 5558 5559 5560 5562 5564 5565 5567 5568 5569 5570 5571 5573 5574 5575 5576 5577 5579 5580 5581 5583 5584 5584 5585 5586 5587 5588 5589 5590 5591
5394 5397 5401 5405 5408 5412 5416 5420 5423 5426 5430 5434 5437 5441 5444 5448 5452 5456 5459 5462 5465 5469 5471 5475 5478 5481 5483 5485 5488 5493 5496 5499 5501 5505 5507 5509 5511 5513 5515 5517 5519 5521 5523 5525 5528 5530 5533 5535 5537 5540 5542 5544 5546 5547 5549 5550 5552 5554 5555 5557 5559 5560 5561 5563 5564 5565 5566 5568 5569 5570 5571 5573 5574 5575 5577 5578 5579 5580 5581 5582 5583 5584 5585 5586 5587 5588
5382 5385 5389 5392 5396 5400 5405 5408 5412 5415 5420 5423 5427 5430 5435 5439 5443 5447 5450 5453 5457 5460 5463 5467 5470 5473 5475 5478 5482 5486 5490 5492 5495 5498 5502 5504 5506 5508 5510 5512 5514 5516 5518 5520 5523 5525 5528 5530 5533 5535 5537 5539 5541 5543 5545 5547 5549 5550 5551 5553 5555 5556 5557 5559 5560 5561 5563 5564 5565 5567 5568 5569 5570 5572 5573 5575 5576 5576 5577 5579 5580 5581 5582 5583 5584 5585
5370 5372 5376 5380 5385 5389 5393 5397 5401 5405 5409 5412 5416 5420 5425 5429 5433 5437 5440 5444 5448 5451 5455 5458 5462 5465 5469 5472 5475 5479 5483 5485 5489 5492 5496 5499 5501 5503 5505 5507 5509 5511 5514 5516 5518 5520 5523 5525 5527 5530 5532 5535 5536 5538 5540 5543 5545 5546 5547 5549 5551 5552 5554 5555 5557 5558 5559 5560 5561 5563 5564 5565 5567 5569 5570 5571 5572 5573 5575 5576 5577 5578 5579 5580 5581 5582
5359 5361 5365 5369 5373 5377 5381 5385 5390 5394 5398 5402 5406 5410 5415 5419 5423 5427 5430 5434 5438 5442 5446 5449 5453 5457 5461 5465 5468 5472 5476 5480 5484 5487 5490 5493 5495 5497 5500 5501 5504 5506 5508 5510 5513 5515 5517 5520 5522 5525 5527 5530 5532 5534 5536 5538 5540 5542 5544 5545 5547 5549 5550 5552 5553 5554 5555 5556 5558 5559 5560 5562 5563 5565 5566 5567 5569 5570 5572 5573 5574 5575 5576 5577 5578 5579
5350 5352 5355 5358 5362 5366 5370 5374 5379 5383 5387 5391 5395 5400 5404 5409 5413 5417 5421 5424 5428 5432 5437 5440 5445 5449 5454 5457 5461 5465 5469 5473 5476 5480 5484 5487 5490 5492 5494 5496 5498 5500 5503 5505 5507 5510 5512 5515 5517 5519 5522 5525 5527 5530 5532 5534 5536 5538 5540 5541 5543 5545 5546 5548 5549 5550 5552 5553 5555 5556 5557 5559 5560 5561 5563 5564 5565 5567 5569 5570 5571 5572 5573 5574 5575 5575
5341 5343 5345 5348 5351 5355 5359 5363 5367 5372 5376 5380 5385 5389 5394 5398 5403 5407 5411 5415 5419 5423 5427 5432 5437 5441 5445 5449 5453 5457 5461 5465 5469 5473 5477 5480 5484 5486 5488 5490 5492 5495 5497 5500 5502 5505 5507 5510 5512 5515 5517 5519 5522 5525 5527 5529 5531 5533 5535 5537 5539 5541 5542 5544 5545 5547 5548 5550 5551 5552 5554 5555 5556 5558 5559 5561 5562 5563 5565 5566 5568 5569 5570 5570 5571 5572